Current Conditions for Foresthill, CA. Clear skies, Dry   
Visibility: 10 miles
Space WX Alerts: ALERT:  Geomagnetic K-index of 4 ( Latest Alert ) - Issue Time: 2018 Aug 17 0413 UTC

  Summary / Temperature 

Current Temperature
73.7°F
23.2°C
(24/hr Ago)
71.2°F
(Apparent temp)
70.2°F
Comfortable
Heat Index
73.5°F 

74.7°F/ 23.7°C
 --- Virtual Temp: 76.1°F ---

 Temp Rate:

 24/hr Difference:

 Avg Running Temp:

 Todays High:

 Todays Low:

 Y-days High:

 Y-days Low:

 Todays HeatIdx:

 Y-days HeatIdx:

 Evapotranspiration:

0°F/hr 

+2.5°F

73.9°F

74.0°F 12:00am

73.7°F 12:32am

88.9°F 1:02pm

69.2°F 6:47am

73.8°F 12:00am

86.0°F 1:33pm

0.003 in

115' Above Ground

 Temperature:

 6'AGL VRS 115'AGL:

 Avg Running Temp:

 Humidity:

 Todays High:

 Todays Low:

 Y-days High:

 Y-days Low:

75.0°F 

+1.3°F

76.0°F

37% 

76.0°F 12:00am

75.0°F 12:41am

89.0°F 4:02pm

71.0°F 6:30am

Temp & Humidity Graphs

  Wind 

Wind Speed

 7.0 mph

Gusting to

 18.0 mph

Wind from ESE

106°  ESE

Light breeze

 Avg speed:

 Wind Run:

 Peak Gust:

  5.0 mph 

4.0 miles

  18.0 mph 12:58am

  Almanac  

Moon age: 6 days,10 hours,1 minutes,40%

Waxing Crescent
40%
Illuminated
6 days in cycle

 Moonrise:

 Moonset:

 Sunrise:

 Sunset:

 Solar Noon:

1:14pm

---

6:20am

7:56pm

1:08pm

2min 14s less daylight tomorrow 

  Solar Radiation 

(Current Solar)
  No Sun Light
(Todays High)
 None@12:00am

Rain

 Rain Today:

 Rain Rate (/hr):

 Rain last hour:

 Rain Yesterday:

 This Month:

 Season Total:

83 Days Since Last Rain Day

0.00 in

0.000 in

0.00 in

0.00 in

0.00 in

0.00 in

Updated Time

Updated: 8/17/18  1:04am

(Updated  sec ago)

Humidity & Barometer

 Humidity:

 Wetbulb:

 Dew Point:

 Barometer:

39% 

59.7°F 

47.2°F 

30.007 inHg 

 Baro Trend:  Steady 
Northern Calif
Preparedness
Fire 
Level 

    UV Index  

(Current UV)
0.0  None
(Todays High) @ 12:00am
0.0   None

National Weather Service Forecast

Overnight

Overnight: Haze
Haze
Friday

Friday: Haze
Haze
Friday
Night
Friday Night: Haze
Haze
Saturday

Saturday: Haze
Haze
Saturday
Night
Saturday Night: Haze
Haze
Sunday

Sunday: Haze
Haze
Lo 66 °F Hi 91 °F Lo 66 °F Hi 94 °F Lo 67 °F Hi 93 °F

Foresthill Probe 2 Stats  
Foresthill Probe 2: is located on Thomas Street
at 3000 feet. The main Foresthill Weather site
is located on Melody ln at the 2860 foot elevation

Calm
72.1°F
22.3°C
Temp Rate:
-0.4°F
Calm
Gusting to
3.0 mph
(Humidity)
42%
Wind from SE
132°  SE
Updated: 17/08/18 - 00:59:23
 Todays High: 72.2°F 00:39
 Todays Low: 71.8°F 00:00
 Rain Today: 0.00 in
 Season Total: 0.00 in

Foresthill Wx: Monthly,Yearly, Highs and Lows 

Foresthill  
This Weather Data is coming from the main Foresthill
Weather site located on Melody ln at the 2860 foot
elevation
Not Foresthill Probe 2
Weather Data
Month
  High
Month
  Low
Year
High
Year
Low
Temp 93.9°F
8/10/18
63.0°F
8/6/18
93.9°F
8/10/18
21.9°F
2/23/18
Humidity 58%
8/7/18
14%
8/1/18
100%
1/8/18
12%
7/8/18
Heat Index 90.9°F
8/10/18
63.0°F
8/6/18
93.3°F
7/25/18
27.1°F
2/20/18
Wind Chill 93.9°F
8/10/18
62.0°F
8/6/18
93.9°F
8/10/18
9.2°F
2/23/18
Wind Gust 21 mph
8/5/18
0 mph
8/1/18
43 mph
3/1/18
0 mph
1/1/18
Barometer 30.02 in
8/16/18
29.81 in
8/14/18
30.55 in
1/27/18
29.60 in
6/16/18
ET 0.23 in
8/12/18
0.00 in
8/1/18
0.25 in
6/24/18
0.00 in
1/1/18
Dew Point 58.7°F
8/1/18
33.2°F
8/4/18
66.9°F
7/24/18
7.6°F
2/11/18
Pacific Satellite US Radar Satellite Imagery Sacramento,CA.  (click to enlarge)
NWS Weather Forecast - Summary
Updated: Thursday, August 16, 2018 - 2:04pm PDT
Poor humidities Friday and Saturday night foothills and mountains
Current Interstate Highway Conditions for I-80 & US-50

[I 80: IN THE SAN FRANCISCO BAY AREA - SOLANO CO]
no traffic restrictions are reported for this area.

[I 80: IN THE NORTHERN CALIFORNIA AREA & SIERRA NEVADA]
no traffic restrictions are reported for this area.

[US 50: IN THE SACRAMENTO VALLEY & THE LAKE TAHOE BASIN]
no traffic restrictions are reported for this area.
NWS Weather Forecast: Overnight and Friday (Updated: Thu, 16-Aug-2018 8:19pm PDT)
Overnight

Overnight: Haze
Haze

Lo 66 °F
NWS forecast: Haze. Clear, with a low around 66. East wind around 7 mph.
Friday

Friday: Haze
Haze

Hi 91 °F
NWS forecast: Haze. Sunny, with a high near 91. South wind 6 to 9 mph.
YR.NO 10 Day Weather forecast
Last update: 08/16/2018 @ 12:33
Next update: 08/17/2018 @ 01:00
Provided by: 22
      Temperature Precipitation Pressure Wind  
Tomorrow
08/16/2018
23:00 00:00 66°F   30.03 inHg Light air from east 2 mph
    (Click to enlarge)
meteogram

    Forecast for next 9 days

      Temperature Precip Pressure Wind  
Today 00:00 06:00 63°F   30.03 inHg Light air from east-northeast 3 mph
  06:00 12:00 59°F   30.03 inHg Light breeze from east-northeast 4 mph
  12:00 18:00 88°F   30.04 inHg Gentle breeze from southwest 8 mph
  18:00 00:00 86°F   29.98 inHg Light breeze from southwest 5 mph
      Temperature Precip Pressure Wind  
Saturday
08/18/2018
00:00 06:00 61°F   30.02 inHg Light breeze from east-northeast 4 mph
  06:00 12:00 57°F   30.01 inHg Light breeze from east-northeast 7 mph
  12:00 18:00 91°F   30.01 inHg Light breeze from southwest 6 mph
  18:00 00:00 88°F   29.92 inHg Light breeze from west-southwest 5 mph
      Temperature Precip Pressure Wind  
Sunday
08/19/2018
00:00 06:00 59°F   29.94 inHg Light breeze from east-northeast 4 mph
  05:00 11:00 57°F   29.90 inHg Light breeze from east-northeast 6 mph
  11:00 17:00 90°F   29.90 inHg Light breeze from west-southwest 5 mph
  17:00 23:00 90°F   29.81 inHg Light breeze from southwest 6 mph
  23:00 05:00 66°F   29.83 inHg Light breeze from east 4 mph
      Temperature Precip Pressure Wind  
Monday
08/20/2018
05:00 11:00 61°F   29.81 inHg Light breeze from east 7 mph
  11:00 17:00 88°F   29.84 inHg Light breeze from south-southwest 7 mph
  17:00 23:00 88°F   29.82 inHg Light breeze from south-southwest 7 mph
  23:00 05:00 64°F   29.90 inHg Light air from east 3 mph
      Temperature Precip Pressure Wind  
Tuesday
08/21/2018
05:00 11:00 57°F   29.91 inHg Light breeze from east-northeast 5 mph
  11:00 17:00 86°F   29.98 inHg Light breeze from southwest 6 mph
  17:00 23:00 86°F   29.96 inHg Light breeze from west-southwest 5 mph
  23:00 05:00 64°F   29.99 inHg Light air from east-northeast 3 mph
      Temperature Precip Pressure Wind  
Wednesday
08/22/2018
05:00 11:00 61°F   29.98 inHg Light breeze from east-northeast 6 mph
  11:00 17:00 91°F   29.99 inHg Light breeze from southwest 5 mph
  17:00 23:00 91°F   29.93 inHg Light breeze from west-southwest 6 mph
  23:00 05:00 72°F   29.96 inHg Light air from east 3 mph
      Temperature Precip Pressure Wind  
Thursday
08/23/2018
05:00 11:00 64°F   29.94 inHg Light breeze from east-northeast 5 mph
  11:00 17:00 91°F   29.95 inHg Light breeze from southwest 5 mph
  17:00 23:00 90°F   29.88 inHg Light breeze from southwest 6 mph
  23:00 05:00 72°F   29.91 inHg Light air from east 3 mph
      Temperature Precip Pressure Wind  
Friday
08/24/2018
05:00 11:00 66°F   29.88 inHg Light breeze from east-northeast 5 mph
  11:00 17:00 90°F   29.89 inHg Light breeze from southwest 6 mph
  17:00 23:00 90°F   29.81 inHg Light breeze from southwest 6 mph
  23:00 05:00 68°F   29.84 inHg Light air from east 3 mph
      Temperature Precip Pressure Wind  
Saturday
08/25/2018
05:00 11:00 66°F   29.83 inHg Light breeze from east-northeast 6 mph
  11:00 17:00 90°F   29.86 inHg Light breeze from southwest 6 mph
  17:00 23:00 90°F   29.81 inHg Light breeze from southwest 7 mph
  23:00 05:00 72°F   29.86 inHg Light air from east 2 mph

NOAA Local Storm Report
5 MILES EAST-SOUTHEAST OF AUBURN   ( More )
DATE
08/14/2018
TIME
12:24 PM
COUNTY
NEMAHA
STATE
NE
GEOGRAPHIC
40.37N 95.75W
SOURCE
CO-OP OBSERVER
HEAVY RAIN MEASURED AT 1.48 INCH
How Close Are We To this Month's Temperature Record ?
Updated Friday, Aug 17, 2018- 12:55:00 AM

Current Temperature: 73.7°F

August's High: Temperature Record 97.8°F - Set on Sat, Aug 11, 2012 - 2:34:00 PM
We are currently 24.1°F Less than this Month's record High

August's Low: Temperature Record 57.5°F - Set on Sun, Aug 30, 2015 - 7:31:00 AM
We are currently 16.2°F More than this Month's record Low

Weather History For Friday, August 17, 2018


On this Day - In Weather History ...
Data courtesy of weatherforyou.com
powered by Cumulus v1.9.3 (1059)
Ambient Weather VWS v14.00
Top Contact Website Map Copyright © 2007 - 2018 Foresthillweather.com Never base important decisions on this or any weather information obtained from the Internet